EST,Max TemperatureF,Mean TemperatureF,Min TemperatureF,Max Dew PointF,MeanDew PointF,Min DewpointF,Max Humidity, Mean Humidity, Min Humidity, Max Sea Level PressureIn, Mean Sea Level PressureIn, Min Sea Level PressureIn, Max VisibilityMiles, Mean VisibilityMiles, Min VisibilityMiles, Max Wind SpeedMPH, Mean Wind SpeedMPH, Max Gust SpeedMPH,PrecipitationIn, CloudCover, Events, WindDirDegrees
2012-12-1,66,52,37,46,41,35,92,72,51,30.38,30.30,30.25,10,10,7,13,1,16,0.00,2,,266
2012-12-2,69,54,39,49,45,37,93,70,47,30.33,30.27,30.21,10,9,7,25,6,32,0.00,2,,229
2012-12-3,72,59,45,49,47,44,93,69,44,30.30,30.24,30.18,10,10,9,15,3,17,0.00,1,,229
2012-12-4,73,59,45,53,49,44,93,70,47,30.26,30.20,30.14,10,10,8,23,7,32,0.01,6,Rain,219
2012-12-5,62,53,44,56,45,34,93,70,47,30.29,30.19,30.13,10,9,4,16,8,22,0.02,6,Rain,16
2012-12-6,52,47,42,43,39,33,82,73,63,30.19,30.14,30.09,10,10,10,9,5,10,0.01,6,Rain,36
2012-12-7,65,53,41,50,45,39,96,76,56,30.10,30.03,29.94,10,10,9,8,1,15,0.00,6,,272
2012-12-8,70,61,51,55,51,48,89,72,55,30.01,29.97,29.92,10,9,6,20,6,24,T,6,Rain,223
2012-12-9,71,64,56,56,54,51,93,75,57,30.02,29.96,29.86,10,10,6,25,6,30,0.00,6,,218
2012-12-10,65,54,42,58,52,39,96,80,63,29.91,29.75,29.64,10,6,1,30,8,39,1.07,8,Rain-Thunderstorm,223
2012-12-11,43,38,33,39,30,26,89,80,70,30.21,30.07,29.91,10,10,10,10,6,13,0.00,7,,7
2012-12-12,46,39,31,31,28,26,85,67,49,30.32,30.27,30.24,10,10,9,15,8,18,0.00,1,,32
2012-12-13,53,41,28,36,31,26,89,70,50,30.40,30.34,30.29,10,10,8,9,2,13,0.00,0,,39
2012-12-14,56,42,27,37,32,25,100,72,43,30.40,30.33,30.20,10,6,0,24,1,32,0.00,1,Fog,30
2012-12-15,59,48,36,47,38,34,92,72,51,30.21,30.10,29.98,10,10,4,9,2,17,0.07,4,Rain,215
2012-12-16,60,55,49,55,50,48,100,86,72,29.99,29.92,29.82,10,6,1,18,7,23,1.27,8,Rain,178
2012-12-17,59,54,48,54,50,46,96,90,83,29.81,29.72,29.62,10,8,2,23,5,31,0.47,7,Rain-Thunderstorm,212
2012-12-18,54,47,40,48,37,30,93,69,45,29.96,29.87,29.68,10,10,10,16,8,21,0.00,4,,231
2012-12-19,63,49,35,42,37,30,89,68,46,30.09,30.03,29.96,10,10,10,10,3,14,0.00,0,,263
2012-12-20,54,46,38,50,42,25,93,74,54,30.00,29.72,29.56,10,6,1,36,11,46,1.06,7,Rain,248
2012-12-21,42,37,32,27,20,13,64,52,40,30.18,29.97,29.80,10,10,9,30,17,39,T,5,Snow,251
2012-12-22,43,33,23,18,16,12,63,48,33,30.34,30.25,30.19,10,10,10,15,5,20,0.00,0,,227
2012-12-23,52,38,23,41,29,16,96,69,41,30.18,30.11,30.03,10,9,4,15,3,22,0.16,5,Rain,286
2012-12-24,48,45,41,46,43,39,100,95,89,30.01,29.91,29.84,5,1,0,6,2,7,0.95,8,Fog-Rain,11
2012-12-25,49,46,43,45,43,42,100,93,86,30.04,29.97,29.81,10,3,0,14,7,17,0.34,8,Fog-Rain,42
2012-12-26,50,42,34,47,38,27,93,85,76,29.99,29.63,29.39,10,7,1,35,16,40,0.53,8,Rain-Snow,259
2012-12-27,35,34,32,28,27,25,82,73,64,30.15,30.10,29.99,10,10,9,16,6,21,T,8,Rain-Snow,348
2012-12-28,42,37,32,36,30,26,85,74,62,30.14,30.01,29.77,10,9,4,15,4,17,0.14,8,Rain,34
2012-12-29,41,37,33,38,32,22,100,85,70,30.26,29.94,29.73,10,8,2,22,13,28,0.07,8,Rain-Snow,261
2012-12-30,40,34,27,23,21,18,75,62,48,30.51,30.40,30.25,10,10,9,15,5,18,T,5,Snow,305
2012-12-31,44,35,25,34,26,22,92,73,53,30.39,30.28,30.11,10,9,6,10,2,13,0.01,5,Rain,285